Satellite: HRBE Catalog number: 37855 Epoch time: 14009.08748963 Element set: 686 Inclination: 101.7107 deg RA of node: 324.3230 deg Eccentricity: 0.0227273 Arg of perigee: 154.6894 deg Mean anomaly: 269.8552 deg Mean motion: 14.86705705 rev/day Decay rate: 1.0880e-04 rev/day^2 Epoch rev: 11901 Checksum: 317
Satellite: RS-39 Catalog number: 38051 Epoch time: 14009.81828924 Element set: 144 Inclination: 051.6351 deg RA of node: 287.9914 deg Eccentricity: 0.0005841 Arg of perigee: 293.8046 deg Mean anomaly: 169.2191 deg Mean motion: 15.41738236 rev/day Decay rate: 3.9443e-04 rev/day^2 Epoch rev: 10954 Checksum: 324
Satellite: E-STAR Catalog number: 38079 Epoch time: 14009.86129228 Element set: 707 Inclination: 069.4670 deg RA of node: 037.8242 deg Eccentricity: 0.0507954 Arg of perigee: 219.2295 deg Mean anomaly: 200.2718 deg Mean motion: 14.73718539 rev/day Decay rate: 8.5748e-04 rev/day^2 Epoch rev: 9987 Checksum: 352
Satellite: GOLIAT Catalog number: 38085 Epoch time: 14009.90147891 Element set: 705 Inclination: 069.4706 deg RA of node: 041.9774 deg Eccentricity: 0.0523361 Arg of perigee: 221.2320 deg Mean anomaly: 192.3498 deg Mean motion: 14.70309389 rev/day Decay rate: 8.7366e-04 rev/day^2 Epoch rev: 9976 Checksum: 333
Satellite: HORYU-2 Catalog number: 38340 Epoch time: 14008.90421360 Element set: 723 Inclination: 098.2428 deg RA of node: 323.7039 deg Eccentricity: 0.0012353 Arg of perigee: 326.3599 deg Mean anomaly: 033.6798 deg Mean motion: 14.71654906 rev/day Decay rate: 2.260e-05 rev/day^2 Epoch rev: 8836 Checksum: 304
Satellite: RS-40 Catalog number: 38736 Epoch time: 14010.03311475 Element set: 472 Inclination: 082.4768 deg RA of node: 026.1517 deg Eccentricity: 0.0020394 Arg of perigee: 232.9034 deg Mean anomaly: 127.0187 deg Mean motion: 12.42875446 rev/day Decay rate: 1.0e-07 rev/day^2 Epoch rev: 6594 Checksum: 277
Satellite: PROITERES Catalog number: 38756 Epoch time: 14009.76795278 Element set: 469 Inclination: 098.2370 deg RA of node: 095.4612 deg Eccentricity: 0.0012741 Arg of perigee: 163.0265 deg Mean anomaly: 197.1359 deg Mean motion: 14.74571907 rev/day Decay rate: 1.146e-05 rev/day^2 Epoch rev: 7183 Checksum: 326
Satellite: BEESAT-3 Catalog number: 39134 Epoch time: 14009.19608959 Element set: 468 Inclination: 064.8724 deg RA of node: 280.7363 deg Eccentricity: 0.0011853 Arg of perigee: 333.0098 deg Mean anomaly: 027.0436 deg Mean motion: 15.02509475 rev/day Decay rate: 8.331e-05 rev/day^2 Epoch rev: 3975 Checksum: 314
Satellite: BEESAT-2 Catalog number: 39136 Epoch time: 14008.87977019 Element set: 455 Inclination: 064.8805 deg RA of node: 281.8593 deg Eccentricity: 0.0011845 Arg of perigee: 332.5824 deg Mean anomaly: 027.4616 deg Mean motion: 15.02236617 rev/day Decay rate: 7.250e-05 rev/day^2 Epoch rev: 3970 Checksum: 313
Satellite: CAPE-2 Catalog number: 39380 Epoch time: 14008.73698866 Element set: 59 Inclination: 040.5188 deg RA of node: 321.1768 deg Eccentricity: 0.0005327 Arg of perigee: 287.5304 deg Mean anomaly: 072.4918 deg Mean motion: 15.21357193 rev/day Decay rate: 5.847e-05 rev/day^2 Epoch rev: 757 Checksum: 325
Satellite: TRLBLAZER Catalog number: 39382 Epoch time: 14009.08189295 Element set: 64 Inclination: 040.5060 deg RA of node: 318.4559 deg Eccentricity: 0.0004255 Arg of perigee: 243.5638 deg Mean anomaly: 116.4915 deg Mean motion: 15.24418683 rev/day Decay rate: 4.0097e-04 rev/day^2 Epoch rev: 762 Checksum: 299
Satellite: TECHEDST3 Catalog number: 39415 Epoch time: 14009.85094287 Element set: 96 Inclination: 051.6400 deg RA of node: 159.1223 deg Eccentricity: 0.0011681 Arg of perigee: 307.0751 deg Mean anomaly: 052.9165 deg Mean motion: 15.89029954 rev/day Decay rate: 1.237771e-02 rev/day^2 Epoch rev: 789 Checksum: 313
Satellite: ZACUBE-1 Catalog number: 39417 Epoch time: 14009.72451182 Element set: 151 Inclination: 097.7932 deg RA of node: 085.7370 deg Eccentricity: 0.0064278 Arg of perigee: 038.3302 deg Mean anomaly: 322.2435 deg Mean motion: 14.77310186 rev/day Decay rate: 1.962e-05 rev/day^2 Epoch rev: 729 Checksum: 293
Satellite: TRITON-1 Catalog number: 39427 Epoch time: 14009.80663666 Element set: 41 Inclination: 097.7839 deg RA of node: 084.8264 deg Eccentricity: 0.0120757 Arg of perigee: 034.4674 deg Mean anomaly: 326.4280 deg Mean motion: 14.64721964 rev/day Decay rate: 1.453e-05 rev/day^2 Epoch rev: 720 Checksum: 311
Satellite: DELFIN3XT Catalog number: 39428 Epoch time: 14008.86649543 Element set: 43 Inclination: 097.7848 deg RA of node: 083.7456 deg Eccentricity: 0.0132082 Arg of perigee: 037.6483 deg Mean anomaly: 323.3842 deg Mean motion: 14.62217255 rev/day Decay rate: 2.351e-05 rev/day^2 Epoch rev: 704 Checksum: 307
Satellite: GOMX-1 Catalog number: 39430 Epoch time: 14009.75318498 Element set: 120 Inclination: 097.7814 deg RA of node: 084.1243 deg Eccentricity: 0.0159098 Arg of perigee: 035.2542 deg Mean anomaly: 325.9035 deg Mean motion: 14.56176976 rev/day Decay rate: 1.295e-05 rev/day^2 Epoch rev: 715 Checksum: 311
Satellite: $50SAT Catalog number: 39436 Epoch time: 14009.02032560 Element set: 49 Inclination: 097.7957 deg RA of node: 085.5893 deg Eccentricity: 0.0031258 Arg of perigee: 055.1735 deg Mean anomaly: 305.2363 deg Mean motion: 14.84835987 rev/day Decay rate: 1.3118e-04 rev/day^2 Epoch rev: 721 Checksum: 312
Satellite: PUCPSAT-1 Catalog number: 39442 Epoch time: 14009.27163629 Element set: 35 Inclination: 097.7972 deg RA of node: 085.8847 deg Eccentricity: 0.0036835 Arg of perigee: 048.2042 deg Mean anomaly: 312.2306 deg Mean motion: 14.84904631 rev/day Decay rate: 3.206e-05 rev/day^2 Epoch rev: 603 Checksum: 293
/EX
participants (1)
-
Ray Hoad